This is the latest recevied weather packets stored in our database for station/object KT2UU-13. If no packets are shown the sender has not sent any weather packets the latest 10 day(s).
| Time | Temp. | Humidity | Pressure | Rain* | Wind** | Luminosity | Snow |
|---|---|---|---|---|---|---|---|
| 1777905010 | 16.67° C | 63% | 1019 hPa | 0 mm | - | - | - |
| 1777904707 | 17.22° C | 60% | 1018.9 hPa | 0 mm | - | - | - |
| 1777904403 | 17.22° C | 62% | 1019.1 hPa | 0 mm | - | - | - |
| 1777904100 | 17.22° C | 59% | 1019.2 hPa | 0 mm | - | - | - |
| 1777903797 | 17.22° C | 68% | 1019.2 hPa | 0 mm | - | - | - |
| 1777903494 | 16.67° C | 69% | 1019 hPa | 0 mm | - | - | - |
| 1777903190 | 16.67° C | 71% | 1019.1 hPa | 0 mm | - | - | - |
| 1777902886 | 16.11° C | 71% | 1019 hPa | 0 mm | - | - | - |
| 1777902583 | 16.11° C | 71% | 1019 hPa | 0 mm | - | - | - |
| 1777902280 | 15.56° C | 71% | 1019 hPa | 0 mm | - | - | - |
| 1777901978 | 15.56° C | 70% | 1018.9 hPa | 0 mm | - | - | - |
| 1777901676 | 15.56° C | 68% | 1019 hPa | 0 mm | - | - | - |
| 1777901373 | 15.56° C | 70% | 1018.7 hPa | 0 mm | - | - | - |
| 1777901071 | 15.56° C | 68% | 1019.1 hPa | 0 mm | - | - | - |
| 1777900767 | 16.11° C | 67% | 1019 hPa | 0 mm | - | - | - |
| 1777900465 | 16.11° C | 69% | 1019.1 hPa | 0 mm | - | - | - |
| 1777900162 | 15.56° C | 71% | 1018.9 hPa | 0 mm | - | - | - |
| 1777899858 | 14.44° C | 74% | 1018.9 hPa | 0 mm | - | - | - |
| 1777899555 | 14.44° C | 73% | 1018.8 hPa | 0 mm | - | - | - |
| 1777899252 | 14.44° C | 72% | 1018.9 hPa | 0 mm | - | - | - |
| 1777898950 | 13.89° C | 73% | 1018.9 hPa | 0 mm | - | - | - |
| 1777898647 | 14.44° C | 72% | 1018.8 hPa | 0 mm | - | - | - |
| 1777898344 | 13.89° C | 73% | 1018.7 hPa | 0 mm | - | - | - |
| 1777898042 | 13.33° C | 77% | 1018.7 hPa | 0 mm | - | - | - |
| 1777897737 | 12.78° C | 78% | 1018.5 hPa | 0 mm | - | - | - |
* Rain latest hour (hover to see other rain measurements)
** Current wind speed in m/s (hover to see current wind gust speed)